• In Sweden
  • List of Countries
  • For 7 days
  • Water Temperature
  • Satellite Maps
  • Weather Map
  • Weather Widgets
  • user-avatar
    Login

    Hourly Weather Trowbridge

    Today, 23 September, Saturday

    Time Temperature Precipitation Wind Pressure Humidity
    00:00 +13°C° 0 mm 4 mps 761 mmHg 91%
    01:00 +13°C° 0.1 mm 4 mps 761 mmHg 90%
    02:00 +13°C° 0.1 mm 4 mps 761 mmHg 90%
    03:00 +14°C° 0.1 mm 4 mps 761 mmHg 90%
    04:00 +13°C° 0 mm 4 mps 761 mmHg 90%
    05:00 +13°C° 0 mm 4 mps 761 mmHg 91%
    06:00 +13°C° 0 mm 3 mps 761 mmHg 92%
    07:00 +14°C° 0 mm 3 mps 761 mmHg 88%
    08:00 +15°C° 0 mm 4 mps 761 mmHg 84%
    09:00 +16°C° 0 mm 5 mps 761 mmHg 79%
    10:00 +17°C° 0 mm 5 mps 761 mmHg 74%
    11:00 +17°C° 0 mm 5 mps 761 mmHg 68%
    12:00 +19°C° 0 mm 5 mps 761 mmHg 62%
    13:00 +19°C° 0 mm 5 mps 761 mmHg 61%
    14:00 +19°C° 0 mm 5 mps 761 mmHg 60%
    15:00 +19°C° 0 mm 5 mps 760 mmHg 59%
    16:00 +17°C° 0 mm 5 mps 760 mmHg 65%
    17:00 +15°C° 0 mm 4 mps 760 mmHg 70%
    18:00 +14°C° 0 mm 4 mps 760 mmHg 76%
    19:00 +14°C° 0 mm 4 mps 760 mmHg 76%
    20:00 +14°C° 0 mm 4 mps 760 mmHg 76%
    21:00 +13°C° 0 mm 4 mps 761 mmHg 77%
    22:00 +14°C° 0 mm 4 mps 760 mmHg 76%
    23:00 +14°C° 0 mm 4 mps 760 mmHg 76%

    Tomorrow, 24 September, Sunday

    Time Temperature Precipitation Wind Pressure Humidity
    00:00 +14°C° 0 mm 4 mps 760 mmHg 75%
    01:00 +14°C° 0 mm 4 mps 760 mmHg 79%
    02:00 +14°C° 0 mm 4 mps 759 mmHg 82%
    03:00 +13°C° 0 mm 4 mps 759 mmHg 86%
    04:00 +13°C° 0 mm 4 mps 759 mmHg 87%
    05:00 +13°C° 0 mm 4 mps 759 mmHg 89%
    06:00 +13°C° 0 mm 4 mps 759 mmHg 90%
    07:00 +14°C° 0 mm 4 mps 759 mmHg 85%
    08:00 +17°C° 0 mm 4 mps 759 mmHg 80%
    09:00 +17°C° 0 mm 5 mps 760 mmHg 74%
    10:00 +19°C° 0 mm 5 mps 760 mmHg 72%
    11:00 +20°C° 0 mm 5 mps 760 mmHg 70%
    12:00 +20°C° 0 mm 5 mps 760 mmHg 67%
    13:00 +20°C° 0 mm 4 mps 759 mmHg 69%
    14:00 +20°C° 0 mm 4 mps 759 mmHg 71%
    15:00 +19°C° 0 mm 4 mps 759 mmHg 72%
    16:00 +19°C° 0.1 mm 3 mps 759 mmHg 77%
    17:00 +18°C° 0.1 mm 3 mps 759 mmHg 81%
    18:00 +17°C° 0.1 mm 3 mps 759 mmHg 85%
    19:00 +16°C° 0.5 mm 2 mps 760 mmHg 87%
    20:00 +16°C° 0.5 mm 2 mps 760 mmHg 90%
    21:00 +16°C° 0.5 mm 2 mps 760 mmHg 92%
    22:00 +16°C° 0.4 mm 2 mps 760 mmHg 93%
    23:00 +16°C° 0.4 mm 2 mps 760 mmHg 94%

    Day after tomorrow, 25 September, Monday

    Time Temperature Precipitation Wind Pressure Humidity
    00:00 +16°C° 0.4 mm 2 mps 760 mmHg 95%
    01:00 +15°C° 0.8 mm 2 mps 760 mmHg 95%
    02:00 +15°C° 0.8 mm 2 mps 760 mmHg 96%
    03:00 +15°C° 0.8 mm 1 mps 760 mmHg 96%
    04:00 +15°C° 0.6 mm 2 mps 760 mmHg 96%
    05:00 +15°C° 0.6 mm 2 mps 760 mmHg 96%
    06:00 +15°C° 0.6 mm 2 mps 760 mmHg 96%
    07:00 +15°C° 0.5 mm 2 mps 760 mmHg 95%
    08:00 +16°C° 0.5 mm 2 mps 760 mmHg 93%
    09:00 +16°C° 0.5 mm 2 mps 760 mmHg 92%
    10:00 +17°C° 0.1 mm 2 mps 761 mmHg 91%
    11:00 +17°C° 0.1 mm 2 mps 761 mmHg 89%
    12:00 +17°C° 0.1 mm 3 mps 761 mmHg 88%
    13:00 +17°C° 0.2 mm 3 mps 761 mmHg 88%
    14:00 +17°C° 0.2 mm 3 mps 761 mmHg 88%
    15:00 +17°C° 0.2 mm 2 mps 761 mmHg 89%
    16:00 +16°C° 0.1 mm 2 mps 761 mmHg 90%
    17:00 +16°C° 0.1 mm 2 mps 761 mmHg 92%
    18:00 +15°C° 0.1 mm 2 mps 762 mmHg 94%
    19:00 +15°C° 0 mm 2 mps 762 mmHg 95%
    20:00 +15°C° 0 mm 2 mps 762 mmHg 95%
    21:00 +14°C° 0 mm 2 mps 762 mmHg 95%
    22:00 +14°C° 0 mm 2 mps 762 mmHg 96%
    23:00 +14°C° 0 mm 2 mps 762 mmHg 96%

    26 September, Tuesday

    Time Temperature Precipitation Wind Pressure Humidity
    00:00 +14°C° 0 mm 2 mps 762 mmHg 96%
    01:00 +13°C° 0 mm 2 mps 762 mmHg 96%
    02:00 +13°C° 0 mm 2 mps 762 mmHg 96%
    03:00 +13°C° 0 mm 2 mps 762 mmHg 96%
    04:00 +12°C° 0 mm 2 mps 762 mmHg 96%
    05:00 +12°C° 0 mm 2 mps 762 mmHg 96%
    06:00 +12°C° 0 mm 2 mps 762 mmHg 96%
    07:00 +13°C° 0 mm 2 mps 762 mmHg 93%
    08:00 +14°C° 0 mm 2 mps 762 mmHg 90%
    09:00 +15°C° 0 mm 2 mps 762 mmHg 88%
    10:00 +16°C° 0 mm 2 mps 762 mmHg 83%
    11:00 +18°C° 0 mm 2 mps 762 mmHg 78%
    12:00 +20°C° 0 mm 1 mps 762 mmHg 73%
    13:00 +20°C° 0.1 mm 1 mps 762 mmHg 71%
    14:00 +20°C° 0.1 mm 1 mps 762 mmHg 68%
    15:00 +19°C° 0.1 mm 0 mps 761 mmHg 66%
    16:00 +20°C° 0.1 mm 1 mps 761 mmHg 71%
    17:00 +18°C° 0.1 mm 1 mps 761 mmHg 77%
    18:00 +16°C° 0.1 mm 1 mps 761 mmHg 82%
    19:00 +16°C° 0 mm 1 mps 761 mmHg 85%
    20:00 +15°C° 0 mm 1 mps 761 mmHg 87%
    21:00 +14°C° 0 mm 1 mps 761 mmHg 90%
    22:00 +14°C° 0 mm 1 mps 761 mmHg 91%
    23:00 +14°C° 0 mm 1 mps 761 mmHg 92%

    27 September, Wednesday

    Time Temperature Precipitation Wind Pressure Humidity
    00:00 +13°C° 0 mm 1 mps 760 mmHg 93%
    01:00 +13°C° 0 mm 1 mps 760 mmHg 93%
    02:00 +13°C° 0 mm 2 mps 760 mmHg 94%
    03:00 +13°C° 0 mm 2 mps 760 mmHg 94%
    04:00 +13°C° 0 mm 2 mps 760 mmHg 95%
    05:00 +13°C° 0 mm 2 mps 760 mmHg 95%
    06:00 +12°C° 0 mm 3 mps 760 mmHg 95%
    07:00 +13°C° 0 mm 4 mps 759 mmHg 91%
    08:00 +14°C° 0 mm 4 mps 759 mmHg 86%
    09:00 +16°C° 0 mm 5 mps 759 mmHg 82%
    10:00 +16°C° 0 mm 6 mps 759 mmHg 79%
    11:00 +17°C° 0 mm 6 mps 759 mmHg 76%
    12:00 +19°C° 0 mm 6 mps 759 mmHg 73%
    13:00 +17°C° 0.9 mm 6 mps 759 mmHg 76%
    14:00 +16°C° 0.9 mm 5 mps 758 mmHg 80%
    15:00 +15°C° 0.9 mm 5 mps 758 mmHg 84%
    16:00 +15°C° 0.9 mm 5 mps 758 mmHg 85%
    17:00 +14°C° 0.9 mm 6 mps 759 mmHg 87%
    18:00 +14°C° 0.9 mm 6 mps 759 mmHg 89%
    19:00 +14°C° 0.1 mm 6 mps 759 mmHg 90%
    20:00 +14°C° 0.1 mm 5 mps 759 mmHg 91%
    21:00 +14°C° 0.1 mm 5 mps 759 mmHg 93%
    22:00 +14°C° 0 mm 4 mps 759 mmHg 94%
    23:00 +14°C° 0 mm 4 mps 759 mmHg 94%

    28 September, Thursday

    Time Temperature Precipitation Wind Pressure Humidity
    00:00 +14°C° 0 mm 3 mps 760 mmHg 95%
    01:00 +13°C° 0 mm 3 mps 760 mmHg 96%
    02:00 +13°C° 0 mm 2 mps 760 mmHg 96%
    03:00 +12°C° 0 mm 2 mps 760 mmHg 96%
    04:00 +12°C° 0 mm 2 mps 760 mmHg 96%
    05:00 +12°C° 0 mm 2 mps 761 mmHg 96%
    06:00 +12°C° 0 mm 2 mps 761 mmHg 96%
    07:00 +13°C° 0.1 mm 2 mps 762 mmHg 94%
    08:00 +13°C° 0.1 mm 3 mps 762 mmHg 92%
    09:00 +13°C° 0.1 mm 3 mps 763 mmHg 90%
    10:00 +14°C° 0.5 mm 3 mps 763 mmHg 87%
    11:00 +14°C° 0.5 mm 3 mps 763 mmHg 85%
    12:00 +15°C° 0.5 mm 2 mps 763 mmHg 83%
    13:00 +14°C° 0.3 mm 3 mps 763 mmHg 81%
    14:00 +14°C° 0.3 mm 3 mps 763 mmHg 80%
    15:00 +16°C° 0.3 mm 3 mps 763 mmHg 78%
    16:00 +14°C° 0.4 mm 3 mps 763 mmHg 82%
    17:00 +14°C° 0.4 mm 4 mps 763 mmHg 85%
    18:00 +14°C° 0.4 mm 4 mps 762 mmHg 89%
    19:00 +14°C° 0.3 mm 5 mps 762 mmHg 89%
    20:00 +15°C° 0.3 mm 5 mps 762 mmHg 90%
    21:00 +15°C° 0.3 mm 6 mps 762 mmHg 91%
    22:00 +16°C° 0.3 mm 6 mps 762 mmHg 92%
    23:00 +16°C° 0.3 mm 6 mps 762 mmHg 93%
    Show more